Regional Weather Roundup
Issued by NWS San Diego, CA

Home | Current Version | Previous Version | Text Only | Print | Product List | Glossary On
Versions: 1 2 3 4 5 6 7 8 9 10 11 12 13 14 15 16 17 18 19 20 21 22 23 24 25 26 27 28
000
ASUS46 KSGX 200011
RWRSGX

SAN DIEGO HOURLY WEATHER ROUNDUP
NATIONAL WEATHER SERVICE SAN DIEGO CA
400 PM PST SUN FEB 19 2017

NOTE: "FAIR" INDICATES FEW OR NO CLOUDS BELOW 12,000 FEET WITH NO
SIGNIFICANT WEATHER AND/OR OBSTRUCTIONS TO VISIBILITY.

CAZ042-043-060-061-PZZ750-775-200100-

GREATER SAN DIEGO AREA

CITY           SKY/WX    TMP DP  RH WIND       PRES   REMARKS
SAN DIEGO AP   PTSUNNY   59  43  55 SW8       30.05R
NATIONAL CITY    N/A     61  49  63 W3        30.04R
CHULA VISTA      N/A     60  49  68 W7        29.97R
IMPERIAL BEACH PTSUNNY  N/A N/A N/A SW8       30.05R
BROWN FIELD    PTSUNNY   56  47  71 SW7       30.03R
MIRAMAR MCAS   PTSUNNY   59  47  64 W6        30.03R
MONTGOMERY FLD CLOUDY    57  44  62 W7        30.03R

$$

NORTH SAN DIEGO COUNTY

CITY           SKY/WX    TMP DP  RH WIND       PRES   REMARKS
CAMP PENDLETON CLOUDY    57  48  72 SW6       30.03
OCEANSIDE AP   CLOUDY    58  49  72 VRB6      30.02R
OCEANSIDE HBR    N/A     56  49  76 NW7       30.05R
VISTA            N/A     56  49  74 SW1       30.01R
CARLSBAD       CLOUDY    57  46  66 W9        30.02R
DEL MAR          N/A     56  50  79 CALM      30.06R
LA JOLLA SCRIP   N/A     56  49  77 W2        30.03S
FALLBROOK        N/A     57  52  84 SW3       30.01R
ESCONDIDO        N/A     57  48  72 SW3       30.05R
SAN MARCOS       N/A     55  47  75 W8        30.05R
POWAY            N/A     56  49  78 CALM      30.06R

$$

EAST SAN DIEGO COUNTY

CITY           SKY/WX    TMP DP  RH WIND       PRES   REMARKS
RAMONA         CLOUDY    52  48  86 W6        30.02R
SANTEE LAKES     N/A     57  49  76 SW5       30.02R
LA MESA          N/A     56  47  73 CALM      29.98R
JAMUL            N/A     54  48  80 CALM      30.05R
DESCANSO N       N/A     43  42  96 W3        29.99S
CAMPO            N/A     47  46  97 SW10      29.98R

$$

ORANGE COUNTY AND THE LOS ANGELES BASIN

CITY           SKY/WX    TMP DP  RH WIND       PRES   REMARKS
JOHN WAYNE AP  PTSUNNY   58  50  75 S12       30.01R
LAGUNA BEACH     N/A     58  52  80 SE3       29.98R
LAKE FOREST FR   N/A     55  46  71 SE3       29.92R
HUNTINGTON BCH   N/A     61  52  73 S2        30.02R
LOS ALAMITOS   PTSUNNY   61  52  72 S9        30.00R
FULLERTON      PTSUNNY   61  47  59 S9G16     29.99S
LONG BEACH     MOSUNNY   60  48  64 S9        30.00R
L.A. AP        PTSUNNY   58  50  75 W8        29.99S
L.A. DOWNTOWN  CLOUDY    61  49  64 CALM      29.99S

$$

THE INLAND EMPIRE

CITY           SKY/WX    TMP DP  RH WIND       PRES   REMARKS
CORONA         CLOUDY    60  49  66 W9        29.99R
CHINO          PTSUNNY   59  49  69 W12       30.00R
ONTARIO        PTSUNNY   56  48  74 SW10      29.98R
SAN BERNARDINO CLOUDY    57  48  72 SE3       29.99R
RIVERSIDE AP   CLOUDY    59  49  69 NW5       29.98R
MORENO VALLEY    N/A     53  51  94 SE3       28.11R
MARCH ARB      CLOUDY    53  49  86 S12       29.99R
HORSETHIEF CYN   N/A     73  60  63 CALM      29.95S
PERRIS           N/A     53  49  86 S9        30.01S
HEMET EAST       N/A     51  44  76 SW2       30.06R
FRENCH VALLEY  CLOUDY    54  45  71 S13       30.01R
TEMECULA         N/A     56  51  83 SW7       30.05S

$$

SAN BERNARDINO AND RIVERSIDE COUNTY MOUNTAINS

CITY           SKY/WX    TMP DP  RH WIND       PRES   REMARKS
BIG BEAR AP    MOSUNNY   39  34  81 W5        29.97R
ANGELUS OAKS     N/A     38  36  92 CALM      29.98R
PINE COVE        N/A     37  37  99 CALM      30.02R

$$

SOUTHERN DESERT INCLUDING THE COACHELLA VALLEY

CITY           SKY/WX    TMP DP  RH WIND       PRES   REMARKS
PALM SPRINGS   MOSUNNY   65  53  65 S8        29.92S
PALM DESERT      N/A     69  51  52 CALM        N/A
THERMAL        MOSUNNY   67  52  58 S7        29.90R
BLYTHE         MOSUNNY   65  48  54 SW12      29.92R
IMPERIAL AP    SUNNY     70  45  40 W15       29.91R
EL CENTRO NAS  SUNNY     70  42  36 W21       29.93R
YUMA AZ        MOSUNNY   67  49  52 S10       29.93
MEXICALI       PTSUNNY   68  48  49 E5        29.93R

$$

UPPER DESERT

CITY           SKY/WX    TMP DP  RH WIND       PRES   REMARKS
VICTORVILLE AP PTSUNNY   55  43  62 SW15      29.92R
HESPERIA         N/A     52  44  73 W12       30.08R
PALMDALE       MOSUNNY   55  45  68 SW23      29.92R
LANCASTER      MOSUNNY   54  45  71 SW21G31   29.92R
EDWARDS AFB    MOSUNNY   55  44  66 SW21G26   29.88R
DAGGETT        MOSUNNY   63  42  46 W17       29.88R
29 PALMS N     PTSUNNY   61  41  47 S9        29.96R
NEEDLES        PTSUNNY   66  49  54 S9        29.91R

$$

REGIONAL REPORTS

CITY           SKY/WX    TMP DP  RH WIND       PRES   REMARKS
SANTA BARBARA  LGT RAIN  56  49  77 W6        29.99R
SANDBERG       FOG       44  43  96 S13       29.96S VSB<1/4
LAS VEGAS NV   PTSUNNY   61  37  41 SW10      29.85R
PHOENIX AZ     PTSUNNY   59  49  69 NW5       29.95R
TIJUANA        CLOUDY    55  41  58 CALM      30.06S
ENSENADA NW      N/A     61  32  34 W10       30.03R

$$

OFFSHORE ISLANDS

CITY           SKY/WX    TMP DP  RH WIND       PRES   REMARKS
CATALINA ARPT  CLOUDY    52  48  86 VRB3      30.00R
SAN NICOLAS IS CLOUDY   N/A N/A N/A SW9       30.00S

$$

MARINE AND OFFSHORE BUOY REPORTS

STATION/POSITION SKY/WX   TEMP    WIND        PRES    VSBY  SWELL
                          AIR SEA DIR/SP/G                  HT/PER/DIR
                          (F)     (DEG/KT/KT) (MB)    (MI)  (FT/S/D)
TANNER BANKS               58 59  270/  8/ 10 1016.7R        10/290/11
S CLEMENTE BASIN           57 59  290/ 12/ 14 1016.9R         8/280/13
SAN NICOLAS IS.               56                N/A           5/300/11
SO. S. ROSA ISLA           56 56  250/  8/ 10 1015.3          8/290/12
W. S. BARBARA CH           55 56  150/  4/  6 1015.6R        10/270/12
M. S. BARBARA CH                  260/  8/ 10 1016.1
S. MONICA BASIN            57 59  200/  4/  6 1015.8R         7/270/13
S PEDRO CHANNEL               60                N/A           5/270/12
CMP PENDLETON NS              59                N/A           3/250/13
OCEANSIDE OFFSHR              59                N/A           5/260/13
TORREY PINES OTR              60                N/A           5/260/13
POINT LOMA SOUTH              60                N/A           5/260/13

$$





USA.gov is the U.S. government's official web portal to all federal, state and local government web resources and services.